Weather History for Montgomery, AL

Change the Weather History Date:

Sunday, November 11, 2012

  Actual Average Record
Temperature  
Mean Temperature 60 °F 58 °F  
Max Temperature 78 °F 71 °F 85 °F (1896)
Min Temperature 41 °F 45 °F 29 °F (1991)
Degree Days  
Heating Degree Days 5 8  
Month to date heating degree days 89 76  
Since 1 July heating degree days 156 167  
Growing Degree Days 10 (Base 50)    
Moisture  
Dew Point 46 °F    
Average Humidity 61    
Maximum Humidity 86    
Minimum Humidity 36    
Precipitation  
Precipitation 0.00 in 0.14 in 1.63 in (2002)
Month to date precipitation 0.35 1.47  
Year to date precipitation 35.81 45.07  
Snow  
Snow 0.00 in 0.00 in - ()
Month to date snowfall 0.0 0.0  
Since 1 July snowfall 0.0 0.0  
Since 1 September snowfall 0.0 0.0  
Snow Depth 0.00 in    
Sea Level Pressure  
Sea Level Pressure 30.27 in    
Wind  
Wind Speed 8 mph (ESE)    
Max Wind Speed 20 mph    
Max Gust Speed 25 mph    
Visibility 10 miles    
Events      
T = Trace of Precipitation, MM = Missing Value Source: NWS Daily Summary

Daily Weather History Graph

Daily Weather History Graph

Search for Another Location

Airport:

Trip Planner

Search our weather history database for the weather conditions in past years. The results will help you decide how hot, cold, wet, or windy it might be!

Date:

Astronomy

Nov. 11, 2012 Rise Set
Actual Time 6:11 AM CST 4:47 PM CST
Civil Twilight 5:45 AM CST 5:13 PM CST
Nautical Twilight 5:16 AM CST 5:42 PM CST
Astronomical Twilight 4:47 AM CST 6:11 PM CST
Moon 3:32 AM CST (11/11) 3:05 PM CST (11/11)
Length of Visible Light 11h 27m
Length of Day
10h 35m
Waning Crescent, 7% of the Moon is Illuminated
Nov 11
Waning Crescent
Nov 13
New
Nov 20
First Quarter
Nov 28
Full
Dec 6
Last Quarter

Hourly Weather History & Observations

Time (CST) Temp. Windchill Dew Point Humidity Pressure Visibility Wind Dir Wind Speed Gust Speed Precip Events Conditions
12:53 AM 45.0 °F - 37.9 °F 76% 30.29 in 10.0 mi Calm Calm - N/A   Clear
1:53 AM 43.0 °F 41.3 °F 37.0 °F 80% 30.28 in 10.0 mi ENE 3.5 mph - N/A   Clear
2:53 AM 43.0 °F 41.3 °F 37.9 °F 82% 30.26 in 10.0 mi East 3.5 mph - N/A   Clear
3:53 AM 44.1 °F 41.5 °F 37.0 °F 76% 30.27 in 10.0 mi East 4.6 mph - N/A   Clear
4:53 AM 42.1 °F 39.2 °F 37.0 °F 82% 30.30 in 10.0 mi East 4.6 mph - N/A   Clear
5:53 AM 41.0 °F 37.1 °F 37.0 °F 86% 30.31 in 10.0 mi East 5.8 mph - N/A   Clear
6:53 AM 46.0 °F 43.9 °F 39.9 °F 79% 30.33 in 10.0 mi ENE 4.6 mph - N/A   Clear
7:53 AM 51.8 °F - 42.8 °F 71% 30.35 in 10.0 mi ESE 5.8 mph - N/A   Mostly Cloudy
8:53 AM 61.0 °F - 48.0 °F 62% 30.35 in 10.0 mi ESE 8.1 mph - N/A   Scattered Clouds
9:53 AM 70.0 °F - 51.1 °F 51% 30.35 in 10.0 mi ESE 12.7 mph - N/A   Clear
10:53 AM 75.9 °F - 50.0 °F 40% 30.32 in 10.0 mi SE 16.1 mph 19.6 mph N/A   Clear
11:53 AM 77.0 °F - 51.1 °F 40% 30.28 in 10.0 mi SE 16.1 mph 21.9 mph N/A   Partly Cloudy
12:53 PM 75.0 °F - 51.1 °F 43% 30.26 in 10.0 mi SSE 10.4 mph 18.4 mph N/A   Partly Cloudy
1:53 PM 75.9 °F - 50.0 °F 40% 30.24 in 10.0 mi SE 13.8 mph 21.9 mph N/A   Scattered Clouds
2:53 PM 77.0 °F - 48.9 °F 37% 30.23 in 10.0 mi SE 15.0 mph 20.7 mph N/A   Mostly Cloudy
3:53 PM 73.9 °F - 48.9 °F 41% 30.22 in 10.0 mi SE 12.7 mph - N/A   Partly Cloudy
4:53 PM 70.0 °F - 50.0 °F 49% 30.23 in 10.0 mi SE 6.9 mph - N/A   Clear
5:53 PM 64.9 °F - 50.0 °F 58% 30.25 in 10.0 mi SE 5.8 mph - N/A   Clear
6:53 PM 61.0 °F - 50.0 °F 67% 30.24 in 10.0 mi East 4.6 mph - N/A   Clear
7:53 PM 59.0 °F - 50.0 °F 72% 30.25 in 10.0 mi SE 5.8 mph - N/A   Clear
8:53 PM 59.0 °F - 50.0 °F 72% 30.24 in 10.0 mi SE 5.8 mph - N/A   Clear
9:53 PM 55.9 °F - 48.9 °F 77% 30.25 in 10.0 mi SE 3.5 mph - N/A   Clear
10:53 PM 53.1 °F - 48.9 °F 86% 30.25 in 10.0 mi SE 5.8 mph - N/A   Clear
11:53 PM 55.0 °F - 50.0 °F 83% 30.22 in 10.0 mi East 6.9 mph - N/A   Mostly Cloudy